Simultaneous Nadir Overpasses (SNOs) Predictions

Prediction of SNOs between AQUA and NOAA-19 Satellite Orbit:

Table of predicted SNOs for the next 14.0 days since TLE Epoch: 12/14/2013
Index Date (AQUA) Time (AQUA) Lat,Lon (AQUA) SZA (AQUA ) Date (NOAA-19) Time (NOAA-19) Lat,Lon (NOAA-19) SZA (NOAA-19 ) Distance(km) Time Diff (sec)
1 12/16/2013 06:26:22 69.86, 84.26 93.08 12/16/2013 06:26:00 69.85, 84.30 93.07 1.79 22
2 12/16/2013 07:14:44 -66.35,-103.92 90.35 12/16/2013 07:15:57 -66.34,-103.87 90.34 2.27 73
3 12/18/2013 11:10:41 70.20, 12.72 93.49 12/18/2013 11:10:14 70.20, 12.74 93.49 1.01 27
4 12/18/2013 11:59:14 -67.31,-175.99 89.35 12/18/2013 12:00:22 -67.32,-176.02 89.34 1.16 68
5 12/20/2013 15:55:04 70.81, -59.23 94.13 12/20/2013 15:54:33 70.81, -59.27 94.14 1.93 31
6 12/20/2013 16:43:34 -67.76, 112.46 88.89 12/20/2013 16:44:37 -67.76, 112.42 88.87 1.74 63
7 12/22/2013 20:39:19 71.01,-130.59 94.34 12/22/2013 20:38:44 71.02,-130.63 94.35 1.87 35
8 12/22/2013 21:27:45 -67.74, 41.43 88.91 12/22/2013 21:28:43 -67.74, 41.45 88.91 0.63 58
9 12/25/2013 01:23:26 70.82, 158.67 94.11 12/25/2013 01:22:47 70.82, 158.70 94.11 1.23 39
10 12/25/2013 02:12:01 -68.04, -29.96 88.66 12/25/2013 02:12:55 -68.04, -29.95 88.66 0.74 54
11 12/27/2013 06:07:38 70.94, 87.44 94.15 12/27/2013 06:06:56 70.93, 87.50 94.15 2.09 42




NCC Satellite Simultaneous Nadir Overpasses (SNOs) Prediction Service
